Weather History for Goodland, KS

Change the Weather History Date:

Sunday, February 17, 2013

  Actual Average Record
Temperature  
Mean Temperature 45 °F 33 °F  
Max Temperature 65 °F 46 °F 81 °F (1970)
Min Temperature 24 °F 20 °F -15 °F (1993)
Degree Days  
Heating Degree Days 20 32  
Month to date heating degree days 501 578  
Since 1 July heating degree days 3837 4081  
Cooling Degree Days 0 0  
Month to date cooling degree days 0 0  
Year to date cooling degree days 0 0  
Moisture  
Dew Point 10 °F    
Average Humidity 35    
Maximum Humidity 63    
Minimum Humidity 7    
Precipitation  
Precipitation 0.00 in 0.02 in 0.42 in (1984)
Month to date precipitation 0.12 0.27  
Year to date precipitation 0.19 0.65  
Snow  
Snow 0.00 in 0.20 in - ()
Month to date snowfall 1.2 3.6  
Since 1 July snowfall 11.9 22.2  
Snow Depth 0.00 in    
Sea Level Pressure  
Sea Level Pressure 29.71 in    
Wind  
Wind Speed 13 mph (SW)    
Max Wind Speed 40 mph    
Max Gust Speed 47 mph    
Visibility 10 miles    
Events      
T = Trace of Precipitation, MM = Missing Value Source: NWS Daily Summary

Daily Weather History Graph

Daily Weather History Graph

Search for Another Location

Airport:

Trip Planner

Search our weather history database for the weather conditions in past years. The results will help you decide how hot, cold, wet, or windy it might be!

Date:

Astronomy

Feb. 17, 2013 Rise Set
Actual Time 6:35 AM MST 5:26 PM MST
Civil Twilight 6:08 AM MST 5:53 PM MST
Nautical Twilight 5:37 AM MST 6:25 PM MST
Astronomical Twilight 5:06 AM MST 6:56 PM MST
Moon 10:32 AM MST (2/17) 12:21 AM MST (2/17)
Length of Visible Light 11h 45m
Length of Day
10h 50m
Waxing Crescent, 49% of the Moon is Illuminated
Feb 17
Waxing Crescent
Feb 17
First Quarter
Feb 25
Full
Mar 4
Last Quarter
Mar 11
New

Hourly Weather History & Observations

Time (MST) Temp. Windchill Dew Point Humidity Pressure Visibility Wind Dir Wind Speed Gust Speed Precip Events Conditions
12:53 AM 27.0 °F 18.0 °F 15.1 °F 61% 29.97 in 10.0 mi WSW 9.2 mph - N/A   Clear
1:53 AM 28.9 °F 19.8 °F 16.0 °F 58% 29.95 in 10.0 mi WSW 10.4 mph - N/A   Clear
2:53 AM 28.0 °F 19.3 °F 15.1 °F 58% 29.91 in 10.0 mi WSW 9.2 mph - N/A   Clear
3:53 AM 26.1 °F 17.6 °F 15.1 °F 63% 29.89 in 10.0 mi SW 8.1 mph - N/A   Clear
4:53 AM 28.0 °F 20.8 °F 15.1 °F 58% 29.88 in 10.0 mi WSW 6.9 mph - N/A   Clear
5:53 AM 27.0 °F 18.0 °F 14.0 °F 58% 29.90 in 10.0 mi SW 9.2 mph - N/A   Clear
6:53 AM 28.0 °F 20.0 °F 16.0 °F 61% 29.89 in 10.0 mi SW 8.1 mph - N/A   Clear
7:53 AM 42.1 °F 34.9 °F 15.1 °F 34% 29.85 in 10.0 mi SW 13.8 mph - N/A   Clear
8:53 AM 48.0 °F - 15.1 °F 27% 29.82 in 10.0 mi SSW 11.5 mph - N/A   Clear
9:53 AM 55.0 °F - 14.0 °F 20% 29.78 in 10.0 mi SSW 11.5 mph - N/A   Clear
10:53 AM 62.1 °F - 9.0 °F 12% 29.72 in 10.0 mi SW 15.0 mph - N/A   Clear
11:53 AM 64.0 °F - 6.1 °F 10% 29.68 in 10.0 mi SW 17.3 mph - N/A   Clear
12:53 PM 64.9 °F - 3.9 °F 9% 29.63 in 10.0 mi SSW 15.0 mph - N/A   Clear
1:53 PM 64.9 °F - -0.9 °F 7% 29.58 in 10.0 mi SSW 11.5 mph 21.9 mph N/A   Clear
2:53 PM 63.0 °F - -2.9 °F 7% 29.57 in 10.0 mi SW 10.4 mph - N/A   Clear
3:53 PM 62.1 °F - -4.0 °F 7% 29.55 in 10.0 mi SW 15.0 mph - N/A   Clear
4:53 PM 57.9 °F - -0.9 °F 9% 29.53 in 10.0 mi SSW 9.2 mph - N/A   Clear
5:53 PM 48.9 °F - 1.0 °F 14% 29.55 in 10.0 mi South 4.6 mph - N/A   Clear
6:53 PM 48.0 °F - -0.0 °F 14% 29.53 in 10.0 mi South 5.8 mph - N/A   Clear
7:53 PM 43.0 °F 38.2 °F 5.0 °F 21% 29.49 in 10.0 mi South 8.1 mph - N/A   Clear
8:53 PM 48.9 °F - 5.0 °F 17% 29.49 in 10.0 mi North 15.0 mph 26.5 mph N/A   Clear
9:03 PM 48.2 °F - 10.4 °F 22% 29.53 in 10.0 mi North 19.6 mph 28.8 mph N/A   Clear
10:53 PM 39.9 °F 28.0 °F 24.1 °F 53% 29.53 in 10.0 mi North 32.2 mph 41.4 mph N/A   Clear
11:53 PM 36.0 °F 23.7 °F 25.0 °F 64% 29.59 in 10.0 mi NNW 26.5 mph 35.7 mph N/A   Clear